Location: Newark
(10.6500°N, 71.6000°W)
Time: 06:41:21
(UTC+00:00)

ISS - Visible Passes

Search period start: 16 October 2019 00:00
Search period end: 26 October 2019 00:00
Orbit: 411 x 421 km, 51.6° (Epoch: 16 October)

Date Brightness Start Highest point End Pass type
(mag) Time Alt. Az. Time Alt. Az. Time Alt. Az.
19 Oct -2.3 10:07:29 10° SSW 10:10:41 41° SE 10:13:52 10° NE visible
20 Oct -0.9 09:19:49 10° S 09:22:12 18° SE 09:24:35 10° E visible
21 Oct -3.0 10:07:06 10° WSW 10:10:11 33° NW 10:13:16 10° NNE visible
22 Oct -3.9 09:21:02 56° SW 09:21:39 86° NW 09:25:00 10° NE visible
23 Oct -0.5 08:36:11 11° ENE 08:36:11 11° ENE 08:36:16 10° ENE visible
